STARLINK-35014

Last updated on Tue Sep 16 2025 00:02:07 GMT+0000 (Coordinated Universal Time)

1 65429U 25192AB 25258.58341435 -.01481726 00000+0 -15621-1 0 9996 2 65429 53.1595 338.0458 0001163 68.0904 196.1111 15.66413763 3628
UTC large
Height (km)
Speed (km/s)
/
Latitude / Longitude
Inclination (degrees)
Orbital Period (minutes)
Azimuth
Elevation
Range (km)
Doppler Factor

Next 0 passes for location: London (51.5072 / 0.1276)

Sorry there are no passes over London.